Weather History for MRLM - February, 2014

Change the Weather History Date:

Friday, February 7, 2014

  Actual Average Record
Temperature  
Mean Temperature 76 °F -  
Max Temperature 84 °F 80 °F 84 °F (1999)
Min Temperature 69 °F 71 °F 66 °F (2005)
Cooling Degree Days 12    
Growing Degree Days 26 (Base 50)    
Moisture  
Dew Point 69 °F    
Average Humidity 66    
Maximum Humidity 88    
Minimum Humidity 52    
Precipitation  
Precipitation 0.00 in 0.26 in - ()
Sea Level Pressure  
Sea Level Pressure 29.93 in    
Wind  
Wind Speed 5 mph ()    
Max Wind Speed 9 mph    
Max Gust Speed -    
Visibility 6.5 miles    
Events      
Averages and records for this station are not official NWS values.
T = Trace of Precipitation, MM = Missing Value Source: Averaged Metar Reports

Daily Weather History Graph

Daily Weather History Graph

Search for Another Location

Airport or City:

Trip Planner

Search our weather history database for the weather conditions in past years. The results will help you decide how hot, cold, wet, or windy it might be!

Date:

Astronomy

Feb. 07, 2014 Rise Set
Actual Time 5:53 AM CST 5:38 PM CST
Civil Twilight 5:31 AM CST 6:00 PM CST
Nautical Twilight 5:06 AM CST 6:25 PM CST
Astronomical Twilight 4:41 AM CST 6:50 PM CST
Moon 12:00 PM CST (2/7) 12:00 AM CST (2/7)
Length of Visible Light 12h 28m
Length of Day
11h 45m
First Quarter, 59% of the Moon is Illuminated
Feb 7
First Quarter
Feb 14
Full
Feb 22
Last Quarter
Mar 1
New
Mar 8
First Quarter

Hourly Weather History & Observations

Time (CST) Temp. Heat Index Dew Point Humidity Pressure Visibility Wind Dir Wind Speed Gust Speed Precip Events Conditions
6:00 AM - - 66 °F % 29.95 in 0 mi NNE 9.2 mph - -  
6:00 AM 69.8 °F - 66.2 °F 88% 29.94 in - North - - N/A   Scattered Clouds
6:56 AM 71.6 °F - 66.2 °F 83% 29.95 in 6.2 mi WNW 4.6 mph - N/A   Mostly Cloudy
7:00 AM 71.6 °F - 66.2 °F 83% 29.95 in 6.2 mi WNW 4.6 mph - N/A   Mostly Cloudy
8:00 AM 78.8 °F - 69.8 °F 74% 29.97 in - West 2.3 mph - N/A   Clear
9:00 AM 81 °F - 69 °F 60% 29.99 in 9 mi East 2.3 mph - -   Haze
9:00 AM 80.6 °F 83.9 °F 69.8 °F 70% 29.98 in - East 2.3 mph - N/A   Clear
10:00 AM 82.4 °F 87.2 °F 71.6 °F 70% 29.98 in 6.2 mi East 5.8 mph - N/A   Partly Cloudy
11:00 AM 82.4 °F 85.4 °F 68.0 °F 62% 29.96 in 6.2 mi East 6.9 mph - N/A   Partly Cloudy
12:00 PM 84 °F - 69 °F 52% 29.95 in 9 mi East 5.8 mph - -   Haze
12:00 PM 84.2 °F 88.4 °F 69.8 °F 62% 29.93 in 6.2 mi East 5.8 mph - N/A   Partly Cloudy
1:00 PM 84.2 °F 87.3 °F 68.0 °F 58% 29.90 in 6.2 mi ENE 6.9 mph - N/A   Partly Cloudy
2:00 PM 84.2 °F 88.4 °F 69.8 °F 62% 29.89 in 6.2 mi ENE 6.9 mph - N/A   Partly Cloudy
3:00 PM 83 °F - 69 °F 53% 29.88 in 9 mi NE 5.8 mph - -   Haze
3:00 PM 84.2 °F 87.3 °F 68.0 °F 58% 29.87 in 6.2 mi NE 5.8 mph - N/A   Partly Cloudy
4:00 PM 84.2 °F 88.4 °F 69.8 °F 62% 29.87 in 6.2 mi NE 5.8 mph - N/A   Partly Cloudy
5:00 PM 82.4 °F 86.3 °F 69.8 °F 66% 29.88 in 6.2 mi NE 4.6 mph - N/A   Scattered Clouds
6:00 PM 80 °F - 69 °F 61% 29.91 in 9 mi NE 3.5 mph - -   Haze
6:00 PM 80.6 °F 83.9 °F 69.8 °F 70% 29.90 in 6.2 mi NE 3.5 mph - N/A   Scattered Clouds